Погода Березино

Погода Березино : погода сейчас, прогноз погоды и архив. Всё, что Вы хотите узнать о погоде Березино!

Хотите узнать прогноз погоды Березино? Тогда Вам сюда: Погода Березино

Поиск расширенной информации на нашем сайте:

Другие новости

Новости СМИ2

Главная страница сайта

Новости сайта

02.10.2013

Напоминаем, что на нашем новом сайте вы можете получить высокодетализированные прогнозы погоды по пунктам России, СНГ и мира (включающие важные для авиации метеовеличины, такие как направление и скорость ветра, видимость, явления погоды, количество и форма облачности, нижняя и верхняя граница облачности), а также ознакомиться с разнообразными материалами по авиационной метеорологии и подборкой полезных ссылок на эту тему.

Сайт Метеоцентр.Азия посвящён разработке технологий оптимизации авиаметеорологического обслуживания, включая проектирование и перспективное создание нескольких автоматизированных авиаметеорологических систем:
- система выпуска высокодетальных прогностических карт явлений погоды для нижнего воздушного пространства по России и ближнему зарубежью;
- система верификации прогнозов TAF (выпускаемых синоптиками официальных АМСГ РФ и ближнего зарубежья) и AUTOTAF (выпускаемых сайтом Метеоцентр.Азия) - выявление ошибок, онлайн-сопоставление с фактической погодой METAR, автоматическое внесение коррективов в прогнозы при резком отклонении фактической погоды от прогноза, подсчёт оправдываемости прогнозов по элементам и в целом;
- система обработки, анализа и отображения авиаметеорологической информации для применения провайдерами метеорологической информации.


Погода Березино - сегодня

Время (UTC), дата Ветер
(°,м/с) 
Видим.   Явления Облачность Т
(°С)
Тd
(°С)
f(%) Тe
(°С)
Pmin
(гПа)
dP
(гПа)
Po
(мм)
O2
(г/м3)
Тmin Tmax R s Состояние
почвы
21 25.05.17 тихо ()   10 км    ясно 
+10.5 +7.4 81 +11  1013.4  0.5  746  288           
00 26.05.17 190 (Ю) 10 км    4/0 средняя, верхняя 
[Ac und|Ci fib]
+8.1 +6.8 91 +9  1013.5  746  291           
03 26.05.17 190 (Ю) 10 км    3/0 средняя, верхняя 
[Ac und|Ci fib]
+8.2 +7.1 93 +9  1013.6  0.1  746  291           
06 26.05.17 260 (З) 10 км    3/0 верхняя 
[Cc]
+17 +9.5 61 +19  1012.8  -0.3  746  281  +7.4         
09 26.05.17 350 (С) 10 км    9/9 1000 м 
[Cu med, cong]
+19.5 +7.8 47 +21  1012.7  0.1  746  279           
12 26.05.17 280 (З) 10 км    9/9 600 м кучево-дожд. 
[Cb calv]
+18.4 +7.1 48 +19  1012.9  0.1  746  281           
15 26.05.17 320 (СЗ) 10 км    9/3 1000 м средняя, верхняя 
[Sc|Ac trans|Cs]
+19.3 +6.1 42 +20  1012.9  746  280           
18 26.05.17 010 (С) 10 км    8/3 1000 м средняя 
[Sc|Ac und]
+16.1 +6.2 52 +17  1014  0.9  747  283    +21.4       
21 26.05.17 290 (З) 10 км    3/0 средняя 
[Ac lent]
+12.4 +5.6 63 +14  1015.6  1.4  748  287           
00 27.05.17 260 (З) 10 км    8/0 средняя 
[Ac und]
+8 +5.8 86 +9  1017.2  1.2  749  292           
09 27.05.17 040 (СВ) 3{10}  10 км    6/6 600 м 
[Cu med, cong]
+19.8 +4 35 +21  1018.6  0.5  750  281           
12 27.05.17 340 (С) 10 км    9/6 600 м средняя, верхняя 
[Sc diur, vesp|Ac trans|Ci fib]
+20 +3.2 33 +20  1018.8  0.2  751  281           
15 27.05.17 020 (С) 10 км    9/3 600 м средняя, верхняя 
[Cu med, cong|Ac trans|Ci fib]
+20.5 +5.9 39 +21  1018.2  -0.5  750  280           
18 27.05.17 270 (З) 10 км    9/1 1000 м верхняя 
[Sc diur, vesp|Ci fib]
+17.8 +6.5 47 +19  1018.9  0.4  751  283    +21.5       
21 27.05.17 270 (З) 10 км    ясно 
+13.5 +5.5 58 +15  1020.1  751  288           
00 28.05.17 240 (ЮЗ) 10 км    10/0 средняя 
[Ac As]
+12.8 +5.8 62 +14  1020.4  0.3  752  288           
09 28.05.17 260 (З) 10 км    4/3 1000 м верхняя 
[Cu med, cong|Ci fib]
+22 +8.9 43 +22  1018.6  -0.2  751  278           
12 28.05.17 340 (С) 10 км    9/4 1000 м средняя, верхняя 
[Cu med, cong|Ac und|Ci fib]
+23.4 +9.4 41 +24  1018.6  751  277           
15 28.05.17 210 (ЮЗ) 10 км    8/4 1000 м верхняя 
[Cu med, cong|Ci fib]
+25.9 +10.2 37 +27  1017.5  -0.9  750  274           
18 28.05.17 210 (ЮЗ) 10 км    9/3 1000 м верхняя 
[Sc diur, vesp|Ci fib]
+22.8 +11 47 +25  1016.9  -0.8  749  277    +26.4       
21 28.05.17 200 (Ю) 10 км    ясно 
+17.4 +11.5 68 +22  1016.8  -0.5  749  282           
00 29.05.17 200 (Ю) 10 км    ясно 
+16.8 +10.2 65 +19  1015.5  -1.2  748  282           
09 29.05.17 200 (Ю) 6-13{13}  10 км    9/4 600 м средняя 
[Cu med, cong|As trans]
+25 +9.8 38 +26  1009.6  -2.1  744  273           
12 29.05.17 230 (ЮЗ) 7-14{14}  10 км    8/5 600 м кучево-дожд., верхняя 
[Cb calv|Ci fib]
+25.6 +8.9 35 +26  1007.4  -2.1  743  272           
18 29.05.17 160 (Ю) 10 км  {гроза, ливн. осадки}  8/4 600 м кучево-дожд., средняя 
[Cb calv|Ac und]
+20.9 +15.1 69 +30  1006.5  0.1  742  274    +26     
Время (UTC), дата Ветер
(°,м/с) 
Видим.   Явления Облачность Т
(°С)
Тd
(°С)
f(%) Тe
(°С)
Pmin
(гПа)
dP
(гПа)
Po
(мм)
O2
(г/м3)
Тmin Tmax R s Состояние
почвы

Для получения пояснительной информации подведите курсор к названию столбца.

ПОГОДА Березино - архив

Всё, что Вы хотите узнать о погоде Березино - удобно и подробно!

Выберите нужную дату (начиная с 1 января 2015* года) и нажмите кнопку "Найти".
Будут отображены архивные сводки погоды по пункту Березино, начиная с указанной даты.


Отображать данные в формате CSV (для использования в таблицах Excel)


Внимание! Наш архив погоды предназначен исключительно для личного некоммерческого использования в познавательных целях. Если Вам необходимы официальные справки о состоянии погоды (для производственных, юридических, коммерческих и т.п. целей), обращайтесь в органы Росгидромета.

*Примечание: данная дата относится к архиву по метеостанциям СССР (Россия, СНГ, Балтия).
Архив по метеостанциям Зарубежной Европы и Азии (кроме Китая) хранится 10 дней, по другим регионам земного шара (Китай, Африка, Америка, Австралия, Океания) - 1 день.

Березино - район местоположения метеостанции


Название, широта, долгота, высота метеостанции:
Березино 53.8°ш. 29°д. 154 м над ур. моря [Беларусь]

Дополнительная информация

В oтличие oт бoльшинства пoгoдных сайтoв мы публикуем пoдрoбную метеoинфoрмацию в детальнoм прoфессиoнальнoм фoрмате.

Характеристики температуры и влажнoсти вoздуха измеряются на высoте 2 м в тени вдали oт зданий и деревьев.
Скoрoсть ветра измеряется на высoте 10 м (на урoвне рoста челoвека скoрoсть ветра ниже в 1.5-2 раза). Если метеoстанция нахoдится в гoрoде или в лесу, тo скoрoсть ветра занижена на 2-4 м/с пo сравнению с oткрытым местoм. Скoрoсть ветра над акватoриями крупных рек и oзёр, а также на вершинах хoлмoв на 2-5 м/с выше, чем в oбычных услoвиях.
Атмoсфернoе давление в разных тoчках местнoсти мoжет значительнo oтличаться oт давления на метеoстанции, в зависимoсти oт услoвий рельефа (при пoдъёме на 10 м давление пoнижается примернo на 1 мм рт.ст.).